Time,TemperatureF,DewpointF,PressureIn,WindDirection,WindDirectionDegrees,WindSpeedMPH,WindSpeedGustMPH,Humidity,HourlyPrecipIn,Conditions,Clouds,dailyrainin,SoftwareType,DateUTC
2013-02-20 00:00:00,27.9,18.3,29.79,SE,129,5.0,6.0,67,0.00,,,0.01,meteohub,2013-02-20 05:00:00,
2013-02-20 00:01:00,27.9,18.3,29.78,SE,134,1.0,6.0,67,0.00,,,0.01,meteohub,2013-02-20 05:01:00,
2013-02-20 00:02:00,27.9,18.3,29.78,ESE,104,2.0,6.0,67,0.00,,,0.01,meteohub,2013-02-20 05:02:00,
2013-02-20 00:07:00,27.9,18.3,29.77,ESE,102,3.0,7.0,67,0.00,,,0.01,meteohub,2013-02-20 05:07:00,
2013-02-20 00:12:00,28.0,18.5,29.77,SSE,152,3.0,7.0,67,0.00,,,0.01,meteohub,2013-02-20 05:12:00,
2013-02-20 00:17:00,28.2,18.7,29.76,South,187,5.0,10.0,67,0.00,,,0.01,meteohub,2013-02-20 05:17:00,
2013-02-20 00:22:00,28.2,18.7,29.76,SSW,204,2.0,10.0,67,0.00,,,0.01,meteohub,2013-02-20 05:22:00,
2013-02-20 00:28:00,28.2,18.7,29.77,South,174,1.0,9.0,67,0.00,,,0.01,meteohub,2013-02-20 05:28:00,
2013-02-20 00:33:00,28.2,18.7,29.76,SE,146,2.0,9.0,67,0.00,,,0.01,meteohub,2013-02-20 05:33:00,
2013-02-20 00:38:00,28.2,19.0,29.76,SE,130,3.0,8.0,68,0.00,,,0.01,meteohub,2013-02-20 05:38:00,
2013-02-20 00:43:00,28.2,19.0,29.75,ESE,113,9.0,9.0,68,0.00,,,0.01,meteohub,2013-02-20 05:43:00,
2013-02-20 00:48:00,28.2,19.0,29.75,SE,144,5.0,10.0,68,0.00,,,0.01,meteohub,2013-02-20 05:48:00,
2013-02-20 00:53:00,28.2,19.0,29.75,SE,142,4.0,10.0,68,0.00,,,0.01,meteohub,2013-02-20 05:53:00,
2013-02-20 00:59:00,28.4,19.2,29.75,South,181,0.0,10.0,68,0.00,,,0.01,meteohub,2013-02-20 05:59:00,
2013-02-20 01:04:00,28.2,19.4,29.75,SE,143,3.0,9.0,69,0.00,,,0.01,meteohub,2013-02-20 06:04:00,
2013-02-20 01:09:00,28.2,19.4,29.74,SE,144,2.0,7.0,69,0.00,,,0.01,meteohub,2013-02-20 06:09:00,
2013-02-20 01:14:00,28.4,19.6,29.73,SSE,168,1.0,8.0,69,0.00,,,0.01,meteohub,2013-02-20 06:14:00,
2013-02-20 01:19:00,28.4,19.6,29.74,SSE,163,4.0,8.0,69,0.00,,,0.01,meteohub,2013-02-20 06:19:00,
2013-02-20 01:24:00,28.6,20.1,29.74,SW,219,0.0,9.0,70,0.00,,,0.01,meteohub,2013-02-20 06:24:00,
2013-02-20 01:29:00,28.6,19.8,29.75,SE,141,2.0,9.0,69,0.00,,,0.01,meteohub,2013-02-20 06:29:00,
2013-02-20 01:35:00,28.6,19.8,29.74,ESE,123,0.0,8.0,69,0.00,,,0.01,meteohub,2013-02-20 06:35:00,
2013-02-20 01:40:00,28.6,20.1,29.73,SE,146,2.0,7.0,70,0.00,,,0.01,meteohub,2013-02-20 06:40:00,
2013-02-20 01:45:00,28.6,20.1,29.73,SE,144,6.0,7.0,70,0.00,,,0.01,meteohub,2013-02-20 06:45:00,
2013-02-20 01:50:00,28.6,20.1,29.73,SE,138,2.0,7.0,70,0.00,,,0.01,meteohub,2013-02-20 06:50:00,
2013-02-20 01:55:00,28.6,20.3,29.73,SE,136,5.0,8.0,71,0.00,,,0.01,meteohub,2013-02-20 06:55:00,
2013-02-20 02:00:00,28.4,20.5,29.73,SSE,165,2.0,8.0,72,0.00,,,0.01,meteohub,2013-02-20 07:00:00,
2013-02-20 02:05:00,28.2,21.4,29.72,SW,219,3.0,8.0,75,0.00,,,0.01,meteohub,2013-02-20 07:05:00,
2013-02-20 02:11:00,27.9,21.9,29.72,SE,132,0.0,8.0,78,0.00,,,0.01,meteohub,2013-02-20 07:11:00,
2013-02-20 02:16:00,27.7,22.1,29.72,SW,225,5.0,7.0,79,0.00,,,0.01,meteohub,2013-02-20 07:16:00,
2013-02-20 02:21:00,27.5,22.1,29.72,SSE,152,1.0,7.0,80,0.00,,,0.01,meteohub,2013-02-20 07:21:00,
2013-02-20 02:26:00,27.5,22.5,29.72,SE,128,0.0,7.0,81,0.00,,,0.01,meteohub,2013-02-20 07:26:00,
2013-02-20 02:31:00,27.3,22.6,29.72,ESE,109,4.0,9.0,82,0.00,,,0.01,meteohub,2013-02-20 07:31:00,
2013-02-20 02:36:00,27.3,22.8,29.72,ESE,119,4.0,9.0,83,0.00,,,0.01,meteohub,2013-02-20 07:36:00,
2013-02-20 02:41:00,27.1,23.2,29.71,South,173,0.0,10.0,85,0.00,,,0.01,meteohub,2013-02-20 07:41:00,
2013-02-20 02:46:00,27.0,23.5,29.71,SSW,192,2.0,11.0,87,0.00,,,0.01,meteohub,2013-02-20 07:46:00,
2013-02-20 02:52:00,26.8,23.9,29.70,SE,142,3.0,11.0,89,0.00,,,0.01,meteohub,2013-02-20 07:52:00,
2013-02-20 02:57:00,26.8,23.9,29.69,SSW,192,2.0,6.0,89,0.00,,,0.01,meteohub,2013-02-20 07:57:00,
2013-02-20 03:05:00,26.6,24.1,29.68,SE,143,0.0,6.0,90,0.00,,,0.01,meteohub,2013-02-20 08:05:00,
2013-02-20 03:10:00,26.8,24.3,29.67,SSE,148,2.0,6.0,90,0.00,,,0.01,meteohub,2013-02-20 08:10:00,
2013-02-20 03:15:00,26.8,24.4,29.67,SSE,161,1.0,10.0,91,0.00,,,0.01,meteohub,2013-02-20 08:15:00,
2013-02-20 03:20:00,27.0,24.4,29.67,East,88,1.0,10.0,90,0.00,,,0.01,meteohub,2013-02-20 08:20:00,
2013-02-20 03:25:00,27.0,24.6,29.66,East,99,6.0,10.0,91,0.00,,,0.01,meteohub,2013-02-20 08:25:00,
2013-02-20 03:30:00,27.1,24.8,29.66,South,182,9.0,9.0,91,0.00,,,0.01,meteohub,2013-02-20 08:30:00,
2013-02-20 03:35:00,27.1,24.8,29.66,SE,126,5.0,11.0,91,0.00,,,0.01,meteohub,2013-02-20 08:35:00,
2013-02-20 03:41:00,27.1,24.8,29.66,SSE,153,3.0,11.0,91,0.00,,,0.01,meteohub,2013-02-20 08:41:00,
2013-02-20 03:46:00,27.1,25.2,29.65,South,170,2.0,11.0,92,0.00,,,0.01,meteohub,2013-02-20 08:46:00,
2013-02-20 03:51:00,27.1,25.2,29.65,SE,141,11.0,11.0,92,0.00,,,0.01,meteohub,2013-02-20 08:51:00,
2013-02-20 03:56:00,27.3,25.3,29.65,East,80,2.0,11.0,92,0.00,,,0.01,meteohub,2013-02-20 08:56:00,
2013-02-20 04:01:00,27.1,25.3,29.65,SE,124,2.0,11.0,93,0.00,,,0.01,meteohub,2013-02-20 09:01:00,
2013-02-20 04:06:00,27.1,25.3,29.65,SE,136,2.0,11.0,93,0.00,,,0.01,meteohub,2013-02-20 09:06:00,
2013-02-20 04:11:00,27.1,25.3,29.64,East,86,5.0,13.0,93,0.00,,,0.01,meteohub,2013-02-20 09:11:00,
2013-02-20 04:17:00,27.3,25.5,29.63,SE,138,5.0,13.0,93,0.00,,,0.01,meteohub,2013-02-20 09:17:00,
2013-02-20 04:22:00,27.3,25.5,29.62,SE,138,5.0,13.0,93,0.00,,,0.01,meteohub,2013-02-20 09:22:00,
2013-02-20 04:27:00,27.3,25.5,29.62,ESE,116,8.0,12.0,93,0.00,,,0.01,meteohub,2013-02-20 09:27:00,
2013-02-20 04:32:00,27.3,25.5,29.61,ESE,107,3.0,10.0,93,0.00,,,0.01,meteohub,2013-02-20 09:32:00,
2013-02-20 04:37:00,27.3,25.5,29.61,SSE,152,2.0,9.0,93,0.00,,,0.01,meteohub,2013-02-20 09:37:00,
2013-02-20 04:42:00,27.3,25.9,29.60,ESE,104,2.0,9.0,94,0.00,,,0.01,meteohub,2013-02-20 09:42:00,
2013-02-20 04:47:00,27.3,25.9,29.60,SE,131,4.0,9.0,94,0.00,,,0.01,meteohub,2013-02-20 09:47:00,
2013-02-20 04:52:00,27.3,25.9,29.59,ESE,120,2.0,11.0,94,0.00,,,0.01,meteohub,2013-02-20 09:52:00,
2013-02-20 04:57:00,27.3,25.9,29.58,SE,140,5.0,11.0,94,0.00,,,0.01,meteohub,2013-02-20 09:57:00,
2013-02-20 05:02:00,27.3,26.1,29.58,ESE,108,4.0,13.0,95,0.00,,,0.01,meteohub,2013-02-20 10:02:00,
2013-02-20 05:07:00,27.3,26.1,29.58,South,178,0.0,13.0,95,0.00,,,0.01,meteohub,2013-02-20 10:07:00,
2013-02-20 05:13:00,27.3,26.1,29.57,SSW,192,0.0,11.0,95,0.00,,,0.01,meteohub,2013-02-20 10:13:00,
2013-02-20 05:18:00,27.5,26.2,29.57,SSE,163,2.0,11.0,95,0.00,,,0.01,meteohub,2013-02-20 10:18:00,
2013-02-20 05:23:00,27.7,26.4,29.56,SE,132,6.0,8.0,95,0.00,,,0.01,meteohub,2013-02-20 10:23:00,
2013-02-20 05:28:00,27.7,26.4,29.55,SE,144,5.0,9.0,95,0.00,,,0.01,meteohub,2013-02-20 10:28:00,
2013-02-20 05:33:00,27.7,26.4,29.55,SSE,149,0.0,9.0,95,0.00,,,0.01,meteohub,2013-02-20 10:33:00,
2013-02-20 05:38:00,27.7,26.4,29.55,SE,126,2.0,9.0,95,0.00,,,0.01,meteohub,2013-02-20 10:38:00,
2013-02-20 05:43:00,27.9,26.6,29.54,SSE,168,3.0,13.0,95,0.00,,,0.01,meteohub,2013-02-20 10:43:00,
2013-02-20 05:49:00,27.9,26.6,29.53,East,87,5.0,13.0,95,0.00,,,0.01,meteohub,2013-02-20 10:49:00,
2013-02-20 05:54:00,27.9,26.6,29.53,ESE,117,7.0,13.0,95,0.00,,,0.01,meteohub,2013-02-20 10:54:00,
2013-02-20 05:59:00,28.0,26.8,29.52,ESE,107,3.0,10.0,95,0.00,,,0.01,meteohub,2013-02-20 10:59:00,
2013-02-20 06:04:00,28.0,26.8,29.52,ESE,109,7.0,13.0,95,0.00,,,0.01,meteohub,2013-02-20 11:04:00,
2013-02-20 06:09:00,28.2,27.0,29.52,SE,139,5.0,15.0,95,0.00,,,0.01,meteohub,2013-02-20 11:09:00,
2013-02-20 06:14:00,28.6,27.5,29.51,South,180,6.0,15.0,96,0.00,,,0.01,meteohub,2013-02-20 11:14:00,
2013-02-20 06:19:00,28.6,27.5,29.51,SE,134,5.0,15.0,96,0.00,,,0.01,meteohub,2013-02-20 11:19:00,
2013-02-20 06:25:00,28.8,27.7,29.51,East,90,7.0,12.0,96,0.00,,,0.01,meteohub,2013-02-20 11:25:00,
2013-02-20 06:30:00,28.8,27.7,29.50,East,101,9.0,12.0,96,0.00,,,0.01,meteohub,2013-02-20 11:30:00,
2013-02-20 06:35:00,28.8,27.7,29.50,SE,127,8.0,16.0,96,0.00,,,0.01,meteohub,2013-02-20 11:35:00,
2013-02-20 06:40:00,28.8,27.7,29.49,ENE,76,13.0,14.0,96,0.00,,,0.01,meteohub,2013-02-20 11:40:00,
2013-02-20 06:45:00,28.8,27.7,29.49,ENE,63,10.0,19.0,96,0.00,,,0.01,meteohub,2013-02-20 11:45:00,
2013-02-20 06:50:00,28.8,27.7,29.49,East,94,8.0,19.0,96,0.00,,,0.01,meteohub,2013-02-20 11:50:00,
2013-02-20 06:55:00,28.8,27.7,29.49,East,84,3.0,19.0,96,0.00,,,0.01,meteohub,2013-02-20 11:55:00,
2013-02-20 07:01:00,28.8,27.7,29.49,ESE,116,7.0,18.0,96,0.00,,,0.01,meteohub,2013-02-20 12:01:00,
2013-02-20 07:06:00,28.8,27.7,29.49,ESE,108,1.0,12.0,96,0.00,,,0.01,meteohub,2013-02-20 12:06:00,
2013-02-20 07:11:00,28.8,27.7,29.49,SSE,156,1.0,14.0,96,0.00,,,0.01,meteohub,2013-02-20 12:11:00,
2013-02-20 07:16:00,28.8,27.7,29.48,ENE,75,3.0,14.0,96,0.00,,,0.01,meteohub,2013-02-20 12:16:00,
2013-02-20 07:21:00,28.8,27.7,29.47,ESE,123,9.0,9.0,96,0.00,,,0.01,meteohub,2013-02-20 12:21:00,
2013-02-20 07:26:00,28.9,27.9,29.47,East,90,3.0,12.0,96,0.00,,,0.01,meteohub,2013-02-20 12:26:00,
2013-02-20 07:31:00,28.9,27.9,29.46,ESE,105,1.0,12.0,96,0.00,,,0.01,meteohub,2013-02-20 12:31:00,
2013-02-20 07:36:00,28.9,27.9,29.46,East,88,5.0,12.0,96,0.00,,,0.01,meteohub,2013-02-20 12:36:00,
2013-02-20 07:42:00,28.9,27.9,29.46,NE,44,4.0,18.0,96,0.00,,,0.01,meteohub,2013-02-20 12:42:00,
2013-02-20 07:47:00,28.9,27.9,29.45,SE,130,10.0,18.0,96,0.00,,,0.01,meteohub,2013-02-20 12:47:00,
2013-02-20 07:52:00,29.1,28.0,29.45,ESE,107,3.0,18.0,96,0.00,,,0.01,meteohub,2013-02-20 12:52:00,
2013-02-20 07:57:00,29.1,28.0,29.44,East,87,1.0,16.0,96,0.00,,,0.01,meteohub,2013-02-20 12:57:00,
2013-02-20 08:02:00,29.1,28.0,29.44,East,90,8.0,16.0,96,0.00,,,0.01,meteohub,2013-02-20 13:02:00,
2013-02-20 08:07:00,29.1,28.0,29.43,East,89,5.0,11.0,96,0.00,,,0.01,meteohub,2013-02-20 13:07:00,
2013-02-20 08:12:00,29.3,28.2,29.42,ESE,105,7.0,16.0,96,0.00,,,0.01,meteohub,2013-02-20 13:12:00,
2013-02-20 08:17:00,29.1,28.0,29.42,SSE,153,6.0,16.0,96,0.00,,,0.01,meteohub,2013-02-20 13:17:00,
2013-02-20 08:22:00,29.1,28.0,29.42,East,95,5.0,16.0,96,0.00,,,0.01,meteohub,2013-02-20 13:22:00,
2013-02-20 08:27:00,29.3,28.2,29.41,ESE,111,0.0,16.0,96,0.00,,,0.01,meteohub,2013-02-20 13:27:00,
2013-02-20 08:32:00,29.3,28.2,29.41,SE,135,6.0,15.0,96,0.00,,,0.01,meteohub,2013-02-20 13:32:00,
2013-02-20 08:37:00,29.3,28.2,29.41,ESE,106,4.0,15.0,96,0.00,,,0.01,meteohub,2013-02-20 13:37:00,
2013-02-20 08:42:00,29.3,28.2,29.41,SE,126,9.0,20.0,96,0.00,,,0.01,meteohub,2013-02-20 13:42:00,
2013-02-20 08:47:00,29.5,28.4,29.41,NE,47,0.0,20.0,96,0.00,,,0.01,meteohub,2013-02-20 13:47:00,
2013-02-20 08:52:00,29.5,28.4,29.41,ESE,123,5.0,20.0,96,0.00,,,0.01,meteohub,2013-02-20 13:52:00,
2013-02-20 08:57:00,29.7,28.9,29.40,NE,49,3.0,15.0,97,0.00,,,0.01,meteohub,2013-02-20 13:57:00,
2013-02-20 09:02:00,29.7,28.9,29.40,SE,126,6.0,15.0,97,0.00,,,0.01,meteohub,2013-02-20 14:02:00,
2013-02-20 09:07:00,29.5,28.8,29.40,East,79,2.0,15.0,97,0.00,,,0.01,meteohub,2013-02-20 14:07:00,
2013-02-20 09:13:00,29.5,28.8,29.40,SSE,148,4.0,12.0,97,0.00,,,0.01,meteohub,2013-02-20 14:13:00,
2013-02-20 09:18:00,29.3,28.6,29.40,SE,139,3.0,12.0,97,0.00,,,0.01,meteohub,2013-02-20 14:18:00,
2013-02-20 09:23:00,29.3,28.6,29.40,East,79,3.0,10.0,97,0.00,,,0.01,meteohub,2013-02-20 14:23:00,
2013-02-20 09:28:00,29.1,28.4,29.40,West,269,5.0,9.0,97,0.00,,,0.01,meteohub,2013-02-20 14:28:00,
2013-02-20 09:33:00,29.1,28.4,29.40,East,86,1.0,10.0,97,0.00,,,0.01,meteohub,2013-02-20 14:33:00,
2013-02-20 09:38:00,29.1,28.4,29.40,SE,138,4.0,10.0,97,0.00,,,0.01,meteohub,2013-02-20 14:38:00,
2013-02-20 09:43:00,29.1,28.4,29.41,SE,130,9.0,10.0,97,0.00,,,0.01,meteohub,2013-02-20 14:43:00,
2013-02-20 09:48:00,29.3,28.6,29.41,East,92,2.0,8.0,97,0.00,,,0.01,meteohub,2013-02-20 14:48:00,
2013-02-20 09:54:00,29.3,28.6,29.41,ESE,115,4.0,12.0,97,0.00,,,0.01,meteohub,2013-02-20 14:54:00,
2013-02-20 09:59:00,29.5,28.8,29.41,SE,132,3.0,12.0,97,0.00,,,0.01,meteohub,2013-02-20 14:59:00,
2013-02-20 10:04:00,29.5,28.8,29.41,SE,128,7.0,8.0,97,0.00,,,0.01,meteohub,2013-02-20 15:04:00,
2013-02-20 10:09:00,29.7,28.9,29.41,East,96,5.0,8.0,97,0.00,,,0.01,meteohub,2013-02-20 15:09:00,
2013-02-20 10:14:00,29.8,29.1,29.41,ENE,71,8.0,8.0,97,0.00,,,0.01,meteohub,2013-02-20 15:14:00,
2013-02-20 10:19:00,30.0,29.3,29.41,South,171,6.0,14.0,97,0.00,,,0.01,meteohub,2013-02-20 15:19:00,
2013-02-20 10:24:00,30.0,29.3,29.40,SE,130,7.0,18.0,97,0.00,,,0.01,meteohub,2013-02-20 15:24:00,
2013-02-20 10:30:00,30.0,29.3,29.40,ESE,103,8.0,18.0,97,0.00,,,0.01,meteohub,2013-02-20 15:30:00,
2013-02-20 10:35:00,30.0,29.3,29.40,ESE,115,5.0,18.0,97,0.00,,,0.01,meteohub,2013-02-20 15:35:00,
2013-02-20 10:40:00,30.0,29.3,29.40,ESE,110,7.0,16.0,97,0.00,,,0.01,meteohub,2013-02-20 15:40:00,
2013-02-20 10:45:00,30.0,29.3,29.40,SSE,161,1.0,16.0,97,0.00,,,0.01,meteohub,2013-02-20 15:45:00,
2013-02-20 10:50:00,30.2,29.5,29.40,East,94,5.0,15.0,97,0.00,,,0.01,meteohub,2013-02-20 15:50:00,
2013-02-20 10:55:00,30.2,29.5,29.40,SE,128,5.0,11.0,97,0.00,,,0.01,meteohub,2013-02-20 15:55:00,
2013-02-20 11:00:00,30.0,29.3,29.39,SE,129,7.0,11.0,97,0.00,,,0.01,meteohub,2013-02-20 16:00:00,
2013-02-20 11:06:00,30.0,29.3,29.39,ESE,111,5.0,13.0,97,0.00,,,0.01,meteohub,2013-02-20 16:06:00,
2013-02-20 11:11:00,30.0,29.3,29.39,ENE,71,0.0,13.0,97,0.00,,,0.01,meteohub,2013-02-20 16:11:00,
2013-02-20 11:16:00,30.2,29.5,29.38,SSE,152,5.0,13.0,97,0.00,,,0.01,meteohub,2013-02-20 16:16:00,
2013-02-20 11:21:00,30.2,29.5,29.38,East,82,3.0,8.0,97,0.00,,,0.01,meteohub,2013-02-20 16:21:00,
2013-02-20 11:26:00,30.4,29.7,29.38,SE,130,3.0,12.0,97,0.00,,,0.01,meteohub,2013-02-20 16:26:00,
2013-02-20 11:31:00,30.4,29.7,29.38,SE,143,13.0,13.0,97,0.00,,,0.01,meteohub,2013-02-20 16:31:00,
2013-02-20 11:36:00,30.4,29.7,29.38,ESE,119,5.0,13.0,97,0.00,,,0.01,meteohub,2013-02-20 16:36:00,
2013-02-20 11:42:00,30.4,29.7,29.37,ESE,115,7.0,13.0,97,0.00,,,0.01,meteohub,2013-02-20 16:42:00,
2013-02-20 11:47:00,30.4,29.7,29.37,ESE,112,9.0,15.0,97,0.00,,,0.01,meteohub,2013-02-20 16:47:00,
2013-02-20 11:52:00,30.4,29.7,29.36,SE,127,10.0,15.0,97,0.00,,,0.01,meteohub,2013-02-20 16:52:00,
2013-02-20 11:57:00,30.6,29.8,29.36,ESE,121,4.0,15.0,97,0.00,,,0.01,meteohub,2013-02-20 16:57:00,
2013-02-20 12:02:00,30.6,29.8,29.36,ESE,109,7.0,16.0,97,0.00,,,0.01,meteohub,2013-02-20 17:02:00,
2013-02-20 12:07:00,30.7,30.0,29.36,ESE,117,13.0,16.0,97,0.00,,,0.01,meteohub,2013-02-20 17:07:00,
2013-02-20 12:12:00,30.7,30.0,29.36,ESE,117,9.0,17.0,97,0.00,,,0.01,meteohub,2013-02-20 17:12:00,
2013-02-20 12:17:00,30.9,30.2,29.36,ESE,103,9.0,17.0,97,0.00,,,0.01,meteohub,2013-02-20 17:17:00,
2013-02-20 12:22:00,30.9,30.2,29.36,East,91,6.0,17.0,97,0.00,,,0.01,meteohub,2013-02-20 17:22:00,
2013-02-20 12:27:00,30.9,30.2,29.36,SE,136,6.0,17.0,97,0.00,,,0.01,meteohub,2013-02-20 17:27:00,
2013-02-20 12:32:00,30.9,30.2,29.36,East,82,9.0,16.0,97,0.00,,,0.01,meteohub,2013-02-20 17:32:00,
2013-02-20 12:37:00,30.9,30.2,29.36,ENE,76,5.0,16.0,97,0.00,,,0.01,meteohub,2013-02-20 17:37:00,
2013-02-20 12:42:00,31.1,30.4,29.36,SE,137,5.0,17.0,97,0.00,,,0.01,meteohub,2013-02-20 17:42:00,
2013-02-20 12:47:00,31.1,30.4,29.36,ESE,107,12.0,17.0,97,0.00,,,0.01,meteohub,2013-02-20 17:47:00,
2013-02-20 12:52:00,31.3,30.6,29.36,SE,146,4.0,17.0,97,0.00,,,0.01,meteohub,2013-02-20 17:52:00,
2013-02-20 12:57:00,31.3,30.6,29.36,East,91,3.0,16.0,97,0.00,,,0.01,meteohub,2013-02-20 17:57:00,
2013-02-20 13:02:00,31.3,30.6,29.36,SE,136,3.0,16.0,97,0.00,,,0.01,meteohub,2013-02-20 18:02:00,
2013-02-20 13:07:00,31.3,30.6,29.36,South,169,5.0,16.0,97,0.00,,,0.01,meteohub,2013-02-20 18:07:00,
2013-02-20 13:12:00,31.3,30.6,29.36,SW,224,5.0,16.0,97,0.00,,,0.01,meteohub,2013-02-20 18:12:00,
2013-02-20 13:17:00,31.3,30.6,29.37,SE,128,2.0,16.0,97,0.00,,,0.01,meteohub,2013-02-20 18:17:00,
2013-02-20 13:22:00,31.3,30.6,29.37,ESE,113,3.0,16.0,97,0.00,,,0.01,meteohub,2013-02-20 18:22:00,
2013-02-20 13:27:00,31.3,30.6,29.37,SE,132,2.0,14.0,97,0.00,,,0.01,meteohub,2013-02-20 18:27:00,
2013-02-20 13:32:00,31.3,30.6,29.37,ESE,113,4.0,11.0,97,0.00,,,0.01,meteohub,2013-02-20 18:32:00,
2013-02-20 13:37:00,31.3,30.6,29.37,East,92,11.0,11.0,97,0.00,,,0.01,meteohub,2013-02-20 18:37:00,
2013-02-20 13:42:00,31.3,30.6,29.37,ESE,112,5.0,11.0,97,0.00,,,0.01,meteohub,2013-02-20 18:42:00,
2013-02-20 13:47:00,31.3,30.6,29.36,East,91,9.0,15.0,97,0.00,,,0.01,meteohub,2013-02-20 18:47:00,
2013-02-20 13:52:00,31.3,30.6,29.37,ESE,115,4.0,16.0,97,0.00,,,0.01,meteohub,2013-02-20 18:52:00,
2013-02-20 13:57:00,31.5,30.7,29.37,SE,136,8.0,16.0,97,0.00,,,0.01,meteohub,2013-02-20 18:57:00,
2013-02-20 14:02:00,31.5,30.7,29.37,ESE,112,4.0,16.0,97,0.00,,,0.01,meteohub,2013-02-20 19:02:00,
2013-02-20 14:07:00,31.5,30.7,29.37,ESE,117,4.0,11.0,97,0.00,,,0.01,meteohub,2013-02-20 19:07:00,
2013-02-20 14:12:00,31.5,30.7,29.37,SE,128,7.0,11.0,97,0.00,,,0.01,meteohub,2013-02-20 19:12:00,
2013-02-20 14:17:00,31.5,30.7,29.37,SE,134,5.0,11.0,97,0.00,,,0.01,meteohub,2013-02-20 19:17:00,
2013-02-20 14:22:00,31.5,30.7,29.37,ESE,117,4.0,11.0,97,0.00,,,0.01,meteohub,2013-02-20 19:22:00,
2013-02-20 14:27:00,31.5,30.7,29.38,East,98,2.0,11.0,97,0.00,,,0.01,meteohub,2013-02-20 19:27:00,
2013-02-20 14:32:00,31.5,30.7,29.37,SE,125,2.0,9.0,97,0.00,,,0.01,meteohub,2013-02-20 19:32:00,
2013-02-20 14:38:00,31.5,30.7,29.37,East,89,5.0,9.0,97,0.00,,,0.01,meteohub,2013-02-20 19:38:00,
2013-02-20 14:43:00,31.5,30.7,29.37,SE,146,4.0,9.0,97,0.00,,,0.01,meteohub,2013-02-20 19:43:00,
2013-02-20 14:48:00,31.6,30.9,29.37,ESE,119,5.0,10.0,97,0.00,,,0.01,meteohub,2013-02-20 19:48:00,
2013-02-20 14:53:00,31.5,30.7,29.38,ESE,122,1.0,10.0,97,0.00,,,0.01,meteohub,2013-02-20 19:53:00,
2013-02-20 14:58:00,31.5,30.7,29.38,SE,139,2.0,10.0,97,0.00,,,0.01,meteohub,2013-02-20 19:58:00,
2013-02-20 15:03:00,31.5,30.7,29.38,East,93,2.0,10.0,97,0.00,,,0.01,meteohub,2013-02-20 20:03:00,
2013-02-20 15:09:00,31.5,30.7,29.38,SE,136,6.0,8.0,97,0.00,,,0.01,meteohub,2013-02-20 20:09:00,
2013-02-20 15:14:00,31.5,30.7,29.38,ESE,118,3.0,9.0,97,0.00,,,0.01,meteohub,2013-02-20 20:14:00,
2013-02-20 15:19:00,31.5,30.7,29.38,SSE,167,4.0,9.0,97,0.00,,,0.01,meteohub,2013-02-20 20:19:00,
2013-02-20 15:24:00,31.3,30.6,29.38,SE,129,3.0,12.0,97,0.00,,,0.01,meteohub,2013-02-20 20:24:00,
2013-02-20 15:29:00,31.3,30.6,29.39,SE,132,1.0,12.0,97,0.00,,,0.01,meteohub,2013-02-20 20:29:00,
2013-02-20 15:34:00,31.3,30.6,29.39,SW,217,8.0,12.0,97,0.00,,,0.01,meteohub,2013-02-20 20:34:00,
2013-02-20 15:39:00,30.6,29.8,29.39,SSW,196,2.0,9.0,97,0.00,,,0.01,meteohub,2013-02-20 20:39:00,
2013-02-20 15:45:00,30.4,29.7,29.39,SW,230,0.0,11.0,97,0.00,,,0.01,meteohub,2013-02-20 20:45:00,
2013-02-20 15:50:00,30.4,29.7,29.39,SE,125,2.0,11.0,97,0.00,,,0.01,meteohub,2013-02-20 20:50:00,
2013-02-20 15:55:00,30.0,29.3,29.39,SE,129,1.0,8.0,97,0.00,,,0.01,meteohub,2013-02-20 20:55:00,
2013-02-20 16:00:00,30.0,29.3,29.40,SE,129,2.0,5.0,97,0.00,,,0.01,meteohub,2013-02-20 21:00:00,
2013-02-20 16:05:00,30.0,29.3,29.40,SE,129,2.0,5.0,97,0.00,,,0.01,meteohub,2013-02-20 21:05:00,
2013-02-20 16:10:00,29.8,29.1,29.40,SE,129,0.0,3.0,97,0.00,,,0.01,meteohub,2013-02-20 21:10:00,
2013-02-20 16:15:00,29.8,29.1,29.40,SE,129,0.0,3.0,97,0.00,,,0.01,meteohub,2013-02-20 21:15:00,
2013-02-20 16:21:00,29.8,29.1,29.41,SE,129,0.0,3.0,97,0.00,,,0.01,meteohub,2013-02-20 21:21:00,
2013-02-20 16:26:00,29.8,29.1,29.41,SE,129,0.0,3.0,97,0.00,,,0.01,meteohub,2013-02-20 21:26:00,
2013-02-20 16:31:00,29.8,29.1,29.41,SE,129,0.0,3.0,97,0.00,,,0.01,meteohub,2013-02-20 21:31:00,
2013-02-20 16:36:00,29.8,29.1,29.41,SE,129,0.0,1.0,97,0.00,,,0.01,meteohub,2013-02-20 21:36:00,
2013-02-20 16:41:00,29.8,29.1,29.41,SE,129,0.0,2.0,97,0.00,,,0.01,meteohub,2013-02-20 21:41:00,
2013-02-20 16:46:00,30.0,29.3,29.42,SE,129,0.0,2.0,97,0.00,,,0.01,meteohub,2013-02-20 21:46:00,
2013-02-20 16:52:00,30.0,29.3,29.42,SE,129,0.0,1.0,97,0.00,,,0.01,meteohub,2013-02-20 21:52:00,
2013-02-20 16:57:00,30.0,29.3,29.42,SE,141,1.0,1.0,97,0.00,,,0.01,meteohub,2013-02-20 21:57:00,
2013-02-20 17:02:00,29.8,29.1,29.42,South,181,1.0,2.0,97,0.00,,,0.01,meteohub,2013-02-20 22:02:00,
2013-02-20 17:07:00,29.8,29.1,29.42,South,181,0.0,3.0,97,0.00,,,0.01,meteohub,2013-02-20 22:07:00,
2013-02-20 17:12:00,29.8,29.1,29.43,South,181,1.0,3.0,97,0.00,,,0.01,meteohub,2013-02-20 22:12:00,
2013-02-20 17:17:00,29.8,29.1,29.43,South,181,0.0,3.0,97,0.00,,,0.01,meteohub,2013-02-20 22:17:00,
2013-02-20 17:22:00,29.8,29.1,29.43,South,181,0.0,2.0,97,0.00,,,0.01,meteohub,2013-02-20 22:22:00,
2013-02-20 17:27:00,29.8,29.1,29.43,South,181,0.0,2.0,97,0.00,,,0.01,meteohub,2013-02-20 22:27:00,
2013-02-20 17:32:00,29.8,29.1,29.43,South,181,0.0,1.0,97,0.00,,,0.01,meteohub,2013-02-20 22:32:00,
2013-02-20 17:37:00,29.7,28.9,29.43,South,181,0.0,1.0,97,0.00,,,0.01,meteohub,2013-02-20 22:37:00,
2013-02-20 17:42:00,29.7,28.9,29.43,South,181,0.0,1.0,97,0.00,,,0.01,meteohub,2013-02-20 22:42:00,
2013-02-20 17:47:00,29.7,28.9,29.43,South,181,0.0,1.0,97,0.00,,,0.01,meteohub,2013-02-20 22:47:00,
2013-02-20 17:52:00,29.7,28.9,29.44,South,181,0.0,0.0,97,0.00,,,0.01,meteohub,2013-02-20 22:52:00,
2013-02-20 17:57:00,29.5,28.8,29.44,South,181,0.0,0.0,97,0.00,,,0.01,meteohub,2013-02-20 22:57:00,
2013-02-20 18:02:00,29.5,28.8,29.44,South,181,0.0,0.0,97,0.00,,,0.01,meteohub,2013-02-20 23:02:00,
2013-02-20 18:07:00,29.5,28.8,29.44,South,181,0.0,0.0,97,0.00,,,0.01,meteohub,2013-02-20 23:07:00,
2013-02-20 18:12:00,29.5,28.8,29.44,South,181,0.0,0.0,97,0.00,,,0.01,meteohub,2013-02-20 23:12:00,
2013-02-20 18:17:00,29.5,28.8,29.44,South,181,0.0,0.0,97,0.00,,,0.01,meteohub,2013-02-20 23:17:00,
2013-02-20 18:22:00,29.5,28.8,29.44,South,181,0.0,0.0,97,0.00,,,0.01,meteohub,2013-02-20 23:22:00,
2013-02-20 18:27:00,29.3,28.6,29.45,South,181,0.0,0.0,97,0.00,,,0.01,meteohub,2013-02-20 23:27:00,
2013-02-20 18:32:00,29.3,28.6,29.45,South,181,0.0,0.0,97,0.00,,,0.01,meteohub,2013-02-20 23:32:00,
2013-02-20 18:38:00,29.3,28.6,29.45,South,181,0.0,0.0,97,0.00,,,0.01,meteohub,2013-02-20 23:38:00,
2013-02-20 18:43:00,29.3,28.6,29.46,South,181,0.0,0.0,97,0.00,,,0.01,meteohub,2013-02-20 23:43:00,
2013-02-20 18:48:00,29.1,28.4,29.45,South,181,0.0,0.0,97,0.00,,,0.01,meteohub,2013-02-20 23:48:00,
2013-02-20 18:53:00,29.1,28.4,29.45,South,181,0.0,0.0,97,0.00,,,0.01,meteohub,2013-02-20 23:53:00,
2013-02-20 18:58:00,29.1,28.4,29.46,South,181,0.0,0.0,97,0.00,,,0.01,meteohub,2013-02-20 23:58:00,
2013-02-20 19:04:00,29.1,28.4,29.46,South,181,0.0,0.0,97,0.00,,,0.01,meteohub,2013-02-21 00:04:00,
2013-02-20 19:09:00,29.3,28.8,29.46,South,181,0.0,0.0,98,0.00,,,0.00,meteohub,2013-02-21 00:09:00,
2013-02-20 19:14:00,29.1,28.4,29.46,NW,323,0.0,0.0,97,0.00,,,0.00,meteohub,2013-02-21 00:14:00,
2013-02-20 19:19:00,29.1,28.4,29.46,NW,323,0.0,2.0,97,0.00,,,0.00,meteohub,2013-02-21 00:19:00,
2013-02-20 19:25:00,29.1,28.4,29.46,NW,323,0.0,2.0,97,0.00,,,0.00,meteohub,2013-02-21 00:25:00,
2013-02-20 19:30:00,29.1,28.4,29.46,NW,323,0.0,2.0,97,0.00,,,0.00,meteohub,2013-02-21 00:30:00,
2013-02-20 19:35:00,28.9,28.2,29.46,NW,323,1.0,3.0,97,0.00,,,0.00,meteohub,2013-02-21 00:35:00,
2013-02-20 19:41:00,28.8,28.0,29.46,NW,323,0.0,4.0,97,0.00,,,0.00,meteohub,2013-02-21 00:41:00,
2013-02-20 19:46:00,28.8,28.0,29.46,NW,323,0.0,4.0,97,0.00,,,0.00,meteohub,2013-02-21 00:46:00,
2013-02-20 19:52:00,28.8,28.0,29.46,NW,323,0.0,1.0,97,0.00,,,0.00,meteohub,2013-02-21 00:52:00,
2013-02-20 19:57:00,28.6,27.9,29.46,NW,323,0.0,0.0,97,0.00,,,0.00,meteohub,2013-02-21 00:57:00,
2013-02-20 20:02:00,28.6,27.9,29.46,NW,323,0.0,0.0,97,0.00,,,0.00,meteohub,2013-02-21 01:02:00,
2013-02-20 20:07:00,28.6,27.9,29.46,NW,323,0.0,0.0,97,0.00,,,0.00,meteohub,2013-02-21 01:07:00,
2013-02-20 20:12:00,28.4,27.7,29.46,NW,323,0.0,0.0,97,0.00,,,0.00,meteohub,2013-02-21 01:12:00,
2013-02-20 20:17:00,28.4,27.7,29.46,NW,323,0.0,0.0,97,0.00,,,0.00,meteohub,2013-02-21 01:17:00,
2013-02-20 20:22:00,28.2,27.5,29.46,NW,323,0.0,0.0,97,0.00,,,0.00,meteohub,2013-02-21 01:22:00,
2013-02-20 20:27:00,28.2,27.5,29.46,NW,323,1.0,3.0,97,0.00,,,0.00,meteohub,2013-02-21 01:27:00,
2013-02-20 20:33:00,28.0,27.3,29.46,NW,323,0.0,3.0,97,0.00,,,0.00,meteohub,2013-02-21 01:33:00,
2013-02-20 20:38:00,28.0,27.3,29.46,NW,323,0.0,3.0,97,0.00,,,0.00,meteohub,2013-02-21 01:38:00,
2013-02-20 20:43:00,28.0,27.3,29.46,NW,323,0.0,3.0,97,0.00,,,0.00,meteohub,2013-02-21 01:43:00,
2013-02-20 20:49:00,28.0,27.3,29.46,NW,323,0.0,3.0,97,0.00,,,0.00,meteohub,2013-02-21 01:49:00,
2013-02-20 20:54:00,27.9,27.1,29.46,NW,323,0.0,3.0,97,0.00,,,0.00,meteohub,2013-02-21 01:54:00,
2013-02-20 20:59:00,27.9,26.8,29.46,NW,323,0.0,3.0,96,0.00,,,0.00,meteohub,2013-02-21 01:59:00,
2013-02-20 21:04:00,27.9,26.8,29.46,NW,323,0.0,2.0,96,0.00,,,0.00,meteohub,2013-02-21 02:04:00,
2013-02-20 21:09:00,27.9,26.8,29.46,NW,323,0.0,2.0,96,0.00,,,0.00,meteohub,2013-02-21 02:09:00,
2013-02-20 21:15:00,27.9,26.8,29.46,NW,323,0.0,2.0,96,0.00,,,0.00,meteohub,2013-02-21 02:15:00,
2013-02-20 21:20:00,27.9,26.8,29.46,NW,323,0.0,4.0,96,0.00,,,0.00,meteohub,2013-02-21 02:20:00,
2013-02-20 21:25:00,27.7,26.6,29.46,NW,323,0.0,4.0,96,0.00,,,0.00,meteohub,2013-02-21 02:25:00,
2013-02-20 21:30:00,27.7,26.6,29.46,NW,323,0.0,2.0,96,0.00,,,0.00,meteohub,2013-02-21 02:30:00,
2013-02-20 21:36:00,27.7,26.6,29.47,NW,323,0.0,2.0,96,0.00,,,0.00,meteohub,2013-02-21 02:36:00,
2013-02-20 21:41:00,27.7,26.6,29.47,West,269,6.0,8.0,96,0.00,,,0.00,meteohub,2013-02-21 02:41:00,
2013-02-20 21:46:00,27.9,26.8,29.47,NW,321,0.0,10.0,96,0.00,,,0.00,meteohub,2013-02-21 02:46:00,
2013-02-20 21:52:00,27.9,26.8,29.47,NW,321,0.0,10.0,96,0.00,,,0.00,meteohub,2013-02-21 02:52:00,
2013-02-20 21:57:00,27.9,26.8,29.47,NW,321,0.0,10.0,96,0.00,,,0.00,meteohub,2013-02-21 02:57:00,
2013-02-20 22:02:00,27.9,26.8,29.47,NW,321,0.0,1.0,96,0.00,,,0.00,meteohub,2013-02-21 03:02:00,
2013-02-20 22:07:00,27.9,26.8,29.47,NW,321,2.0,2.0,96,0.00,,,0.00,meteohub,2013-02-21 03:07:00,
2013-02-20 22:12:00,27.9,26.8,29.47,NW,321,0.0,2.0,96,0.00,,,0.00,meteohub,2013-02-21 03:12:00,
2013-02-20 22:17:00,27.9,26.8,29.47,NW,321,0.0,2.0,96,0.00,,,0.00,meteohub,2013-02-21 03:17:00,
2013-02-20 22:23:00,28.0,27.0,29.47,NW,321,0.0,2.0,96,0.00,,,0.00,meteohub,2013-02-21 03:23:00,
2013-02-20 22:28:00,28.0,27.0,29.47,NW,321,0.0,2.0,96,0.00,,,0.00,meteohub,2013-02-21 03:28:00,
2013-02-20 22:33:00,28.0,27.0,29.47,NW,321,0.0,2.0,96,0.00,,,0.00,meteohub,2013-02-21 03:33:00,
2013-02-20 22:39:00,28.0,27.0,29.47,NW,321,0.0,1.0,96,0.00,,,0.00,meteohub,2013-02-21 03:39:00,
2013-02-20 22:44:00,28.0,27.0,29.47,NW,321,0.0,1.0,96,0.00,,,0.00,meteohub,2013-02-21 03:44:00,
2013-02-20 22:49:00,28.0,27.0,29.47,NW,321,2.0,2.0,96,0.00,,,0.00,meteohub,2013-02-21 03:49:00,
2013-02-20 22:54:00,27.9,26.8,29.46,NW,321,3.0,0.0,96,0.00,,,0.00,meteohub,2013-02-21 03:54:00,
2013-02-20 23:00:00,27.9,26.8,29.46,WSW,255,1.0,3.0,96,0.00,,,0.00,meteohub,2013-02-21 04:00:00,
2013-02-20 23:05:00,27.9,26.8,29.46,West,275,0.0,6.0,96,0.00,,,0.00,meteohub,2013-02-21 04:05:00,
2013-02-20 23:10:00,27.9,26.8,29.47,West,275,1.0,6.0,96,0.00,,,0.00,meteohub,2013-02-21 04:10:00,
2013-02-20 23:15:00,27.9,26.8,29.47,West,275,0.0,3.0,96,0.00,,,0.00,meteohub,2013-02-21 04:15:00,
2013-02-20 23:20:00,27.7,26.6,29.47,West,273,3.0,3.0,96,0.00,,,0.00,meteohub,2013-02-21 04:20:00,
2013-02-20 23:26:00,27.3,26.4,29.47,West,277,2.0,5.0,96,0.00,,,0.00,meteohub,2013-02-21 04:26:00,
2013-02-20 23:31:00,27.3,26.4,29.48,WNW,292,1.0,5.0,96,0.00,,,0.00,meteohub,2013-02-21 04:31:00,
2013-02-20 23:36:00,27.3,26.4,29.48,WNW,296,0.0,5.0,96,0.00,,,0.00,meteohub,2013-02-21 04:36:00,
2013-02-20 23:41:00,27.3,26.4,29.48,WNW,296,0.0,4.0,96,0.00,,,0.00,meteohub,2013-02-21 04:41:00,
2013-02-20 23:46:00,27.3,26.4,29.48,WNW,295,1.0,4.0,96,0.00,,,0.00,meteohub,2013-02-21 04:46:00,
2013-02-20 23:51:00,27.3,26.4,29.48,West,277,2.0,4.0,96,0.00,,,0.00,meteohub,2013-02-21 04:51:00,
2013-02-20 23:56:00,27.5,26.6,29.48,West,278,0.0,4.0,96,0.00,,,0.00,meteohub,2013-02-21 04:56:00,